Location: Temple Hill
(37.3073°N, 88.6303°W)
Time: 17:24:22
(UTC+00:00)

YAOGAN 6 - Pass Details

Date: 23 November 2020
Orbit: 466 x 502 km, 97.0° (Epoch: 20 January)

Event Time Altitude Azimuth Distance (km) Brightness Sun altitude
Rises 23:09:46 0° 169° (S) 2,581 6.4 -6.4°
Reaches altitude 10° 23:11:51 10° 170° (S) 1,699 5.5 -6.8°
Maximum altitude 23:15:31 83° 259° (WSW) 507 2.7 -7.5°
Drops below altitude 10° 23:19:10 10° 347° (NNW) 1,698 5.3 -8.1°
Sets 23:21:15 0° 348° (NNW) 2,579 6.2 -8.5°
